Location: Berneck
(47.4255°N, 9.6162°E)
Time: 05:53:07
(UTC+00:00)

Daily predictions for brighter satellites

Satellite Brightness Start Highest point End
(mag) Time Altitude Azimuth Time Altitude Azimuth Time Altitude Azimuth
USA 59 Rocket 3.1 03:08:36 11° ESE 03:08:36 11° ESE 03:08:53 10° ESE
SL-16 R/B 3.8 03:19:10 27° NE 03:19:36 28° NE 03:24:25 10° ESE
Cosmos 2082 Rocket 3.4 03:23:08 36° ENE 03:23:08 36° ENE 03:26:45 10° NE
USA 234 4.0 03:23:39 10° NE 03:28:36 41° NNE 03:28:36 41° NNE
Cosmos 1980 Rocket 4.3 03:44:55 15° S 03:44:55 15° S 03:45:53 10° S
Cosmos 2369 4.3 03:51:16 49° SSE 03:51:16 49° SSE 03:55:18 10° SSE
NOSS 3-1 (C) 4.0 03:52:30 59° NNW 03:54:10 81° NE 04:02:59 10° SE
Cosmos 841 Rocket 3.8 04:00:24 59° SE 04:01:01 65° ESE 04:06:15 10° NNE
COSMOS 2455 2.9 04:07:00 63° SSW 04:07:00 63° SSW 04:12:17 10° SSE
Cosmos 2360 Rocket 3.6 04:09:26 20° N 04:12:34 34° NE 04:17:38 10° ESE
Cosmos 2333 Rocket 3.0 04:11:00 28° N 04:13:42 48° NE 04:19:14 10° SE
Cosmos 489 Rocket 4.5 04:08:20 10° SSW 04:14:37 80° ESE 04:20:55 10° NNE
Nadezhda 4 Rocket 3.9 04:11:39 10° S 04:17:58 89° W 04:24:16 10° N
ATLAS 3B R/B 4.4 04:14:24 20° NNW 04:17:59 28° NNE 04:24:26 10° ENE
Cosmos 1892 Rocket 4.2 04:18:36 10° S 04:22:51 56° E 04:27:11 10° NNE
Cosmos-2242 4.2 04:24:05 16° N 04:27:04 39° ENE 04:31:01 10° SE
Cosmos 1898 Rocket 3.8 04:29:28 47° SW 04:29:28 47° SW 04:33:41 10° S
Cosmos 2219 Rocket 3.8 04:25:49 13° N 04:30:00 30° NE 04:34:53 10° ESE
COSMO-SKYMED 1 2.9 04:26:59 10° SSE 04:31:02 59° ENE 04:32:40 33° N
IRS-1D 3.5 04:28:57 10° NNE 04:33:59 81° ESE 04:39:05 10° SSW
Cosmos 2322 Rocket 2.8 04:32:25 21° NNW 04:36:10 53° ENE 04:41:41 10° SE
Orbus 7S? 4.0 04:48:21 29° NE 04:48:21 29° NE 04:50:29 10° E
Cosmos 1937 Rocket 3.6 04:49:25 45° W 04:49:55 47° WSW 04:54:47 10° S
Cosmos 858 Rocket 4.4 04:49:23 38° NW 04:51:14 64° WSW 04:56:21 10° S
BREEZE M DEB (TANK) 4.0 04:50:05 13° S 04:51:21 18° SE 04:53:39 10° E
USA 59 Rocket 1.4 04:54:18 24° SW 04:54:18 24° SW 04:57:33 10° S
Meteor 2-3 Rocket 3.6 04:48:05 10° SSW 04:53:48 71° WNW 04:59:29 10° N
BREEZE-M DEB (TANK) 3.7 04:55:04 25° E 04:55:04 25° E 04:56:06 10° E
Meteor 1-26 Rocket 4.2 04:49:57 10° N 04:55:31 86° E 05:01:13 10° S
Cosmos 1484 Rocket 3.7 04:52:52 10° NNE 04:56:09 42° E 04:59:23 10° S
Meteor 2-20 Rocket 4.3 04:51:35 10° N 04:57:23 81° E 05:03:05 10° SSE
Cosmos 2058 Rocket 3.0 04:54:41 16° N 04:58:13 89° W 05:02:37 10° S
SKYMED 2 3.7 04:55:14 10° S 04:59:26 48° W 05:00:15 42° WNW
COSMOS 2406 3.2 04:55:16 16° SW 04:59:49 57° WNW 05:05:26 10° NNE
NOSS 3-1 (A) 4.0 04:57:15 23° NW 05:02:12 86° SW 05:11:07 10° SE
SL-16 R/B 2.2 05:01:03 27° NW 05:04:05 60° WSW 05:09:38 10° S
Cosmos 2082 Rocket 2.8 05:05:01 31° WNW 05:05:38 31° NW 05:10:37 10° NNE
CZ-4 R/B 3.7 05:02:52 10° N 05:07:26 57° WNW 05:11:55 10° SSW
Cosmos 1627 Rocket 4.3 05:02:30 10° SSW 05:08:35 71° W 05:14:44 10° N
SeaSat 1 4.3 05:05:55 10° N 05:07:29 14° NNW 05:07:29 14° NNW
USA 234 4.0 05:06:01 10° ENE 05:12:01 40° N 05:15:57 20° NW
BREEZE-M DEB (TANK) 2.6 05:12:02 52° WNW 05:12:30 66° NNW 05:14:45 10° ENE
Okean 1 2.8 05:11:24 23° NNW 05:13:30 74° W 05:17:02 10° S
Helios 1A Rocket 2.7 05:12:12 10° S 05:15:24 44° W 05:15:55 40° WNW
Cosmos 1814 Rocket 4.2 05:11:03 10° SSW 05:16:15 73° ESE 05:21:32 10° NNE
NOAA 12 4.2 05:12:38 10° N 05:17:44 50° WNW 05:22:47 10° SW
DMSP B5D1-3 4.4 05:13:54 10° SSE 05:19:01 86° WSW 05:24:10 10° NNW
CBERS-1 4.4 05:16:42 10° NNE 05:21:48 67° ESE 05:26:50 10° S
Cosmos 2285 Rocket 4.0 05:17:38 10° NNW 05:24:04 89° ENE 05:30:29 10° SSE
BREEZE-M DEB (TANK) 2.8 05:23:26 34° WNW 05:24:25 60° N 05:29:26 10° E
BREEZE-M DEB (TANK) 2.9 05:24:35 26° W 05:26:16 59° S 05:33:08 10° ESE
Cosmos 2278 4.0 05:24:16 19° NW 05:28:04 45° WSW 05:33:23 10° S
IRIDIUM 103 4.3 05:23:56 10° S 05:29:09 89° E 05:34:25 10° N
SL-4 R/B 1.3 05:28:33 31° WNW 05:29:58 79° NNE 05:33:09 10° ESE
Cosmos 2151 4.0 05:27:13 10° SSE 05:31:07 46° E 05:35:03 10° NNE
Cosmos 1758 Rocket 3.6 05:28:28 10° S 05:32:53 84° E 05:37:18 10° N
Cosmos 2026 Rocket 4.2 05:28:05 10° SW 05:33:50 44° WNW 05:39:40 10° N
NOSS 8 (A) 4.0 05:33:11 26° NW 05:34:40 77° SW 05:37:57 10° SE
Cosmos 2221 2.9 05:31:46 10° N 05:35:53 62° ENE 05:39:59 10° SSE
Thor Agena Rocket 3.9 05:34:55 10° NNE 05:39:58 67° ESE 05:44:57 10° S
Cosmos 405 Rocket 2.2 05:39:25 10° SSW 05:42:38 61° WNW 05:45:54 10° N
Cosmos 1707 3.3 05:43:27 10° N 05:46:30 45° ENE 05:49:31 10° SSE
IRIDIUM 106 4.3 05:42:19 10° SSW 05:47:30 65° W 05:52:42 10° N
Cosmos 158 Rocket 3.9 05:43:02 10° SSW 05:48:21 75° WNW 05:53:37 10° NNE
KORONAS-FOTON 4.0 05:50:45 10° N 05:54:06 61° ENE 05:57:27 10° SSE
Cosmos 1626 Rocket 3.8 05:51:39 10° SSW 05:55:55 48° WNW 06:00:13 10° N
Cosmos 2360 Rocket 2.6 05:51:20 10° NW 05:56:41 45° WSW 06:01:59 10° S
S3M 4.1 05:50:34 10° N 05:56:48 79° E 06:02:55 10° SSE
Cosmos 2333 Rocket 3.1 05:53:03 11° NW 05:57:46 31° WSW 06:02:45 10° SSW
Cosmos 1553 Rocket 4.2 05:52:08 10° NNW 05:58:17 52° W 06:04:27 10° SSW
SMAP 3.0 05:55:39 10° NNE 06:00:20 83° WNW 06:04:59 10° SSW
Cosmos 1833 4.2 05:54:44 10° SSW 06:00:23 76° WNW 06:06:07 10° NNE
SL-08 R/B 4.2 05:58:18 10° SE 06:02:43 48° ENE 06:07:13 10° N
Cosmos-2242 4.3 06:00:43 10° NW 06:03:49 20° W 06:06:54 10° SW
Cosmos 1842 3.5 06:01:28 10° N 06:04:45 56° E 06:08:00 10° SSE
Landsat 7 3.8 06:00:56 10° NNE 06:05:37 89° W 06:10:17 10° SSW
COSMO-SKYMED 1 4.2 06:04:27 10° WSW 06:06:43 14° W 06:08:59 10° NW
Cosmos 2237 Rocket 3.9 06:02:39 10° N 06:07:24 27° NE 06:12:08 10° ESE
Cosmos 1125 Rocket 3.5 06:03:23 10° NNW 06:08:40 80° WSW 06:13:53 10° SSE
ATLAS 3B R/B 3.4 06:02:37 10° NW 06:10:26 60° NE 06:17:51 10° ESE
Meteor 1-10 Rocket 4.4 06:05:03 10° NNW 06:10:59 83° W 06:16:55 10° S
BREEZE-M DEB (TANK) 3.9 06:09:10 10° SW 06:11:24 41° SSE 06:14:30 10° ENE
Cosmos 2219 Rocket 2.4 06:08:43 10° NW 06:14:14 55° WSW 06:19:42 10° S
Meteor 1-19 Rocket 4.3 06:10:34 10° NNW 06:16:20 71° W 06:22:15 10° S
Cosmos 2322 Rocket 3.2 06:15:07 10° NW 06:19:50 27° WSW 06:24:32 10° SSW
BREEZE-M DEB (TANK) 3.9 06:05:11 10° W 06:21:28 76° N 06:25:33 10° E
Okean 1-7 Rocket 3.6 06:21:12 10° SSW 06:25:40 65° WNW 06:30:08 10° N
YAOGAN 11 4.3 06:22:07 10° SSE 06:26:28 79° ENE 06:30:47 10° NNW
